Miscellaneous Local Product
Issued by NWS North Platte, NE

Home | Current Version | Previous Version | Text Only | Print | Product List | Glossary On
Versions: 1 2 3 4 5 6 7 8 9 10 11 12 13 14 15 16 17 18 19 20 21 22 23 24 25 26 27 28 29 30 31 32 33 34 35 36 37 38 39 40 41 42 43 44 45 46 47 48 49 50
000
AXUS43 KLBF 050510
MISLBF


WESTERN AND NORTH CENTRAL NEBRASKA HOURLY WEATHER ROUNDUP
NATIONAL WEATHER SERVICE NORTH PLATTE NE
1200 AM CDT SAT SEP 05 2015

NOTE: "FAIR" INDICATES FEW OR NO CLOUDS BELOW 12,000 FEET WITH NO
SIGNIFICANT WEATHER AND/OR OBSTRUCTIONS TO VISIBILITY.

NOTE: STATIONS NOT REPORTING VARIABLES SUCH AS SKY/WEATHER OR
PRESSURE ARE PROVIDED BY THE NEBRASKA DEPARTMENT OF
ROADS...RAWS...AND APRS NETWORKS...AND ARE NOT UNDER
NATIONAL WEATHER SERVICE QUALITY CONTROL.

...OBSERVATIONS IN AND NEAR THE EASTERN PANHANDLE OF NEBRASKA...

CITY           SKY/WX    TMP DP  RH WIND       PRES   REMARKS
PINE RIDGE     MOCLDY    74  51  44 S6        29.84R
CHADRON        CLOUDY    80  47  31 SW10G20   29.83R
ALLIANCE       CLOUDY    75  53  46 SE8       29.87F
SIDNEY         MOCLDY    73  49  42 SE10      29.91S
CRESCENT LAKE    N/A     74  52  46 SE3         N/A
BIG SPRINGS      N/A     74  59  58 SE8         N/A
$$

...OBSERVATIONS IN NORTH CENTRAL NEBRASKA...

CITY           SKY/WX    TMP DP  RH WIND       PRES   REMARKS
VALENTINE      MOCLDY    75  62  64 S5        29.82S
THEDFORD       MOCLDY    69  62  80 CALM      29.86S
O`NEILL        PTCLDY    76  69  79 SE8       29.84S
ORD            PTCLDY    77  66  68 S6        29.84R
BROKEN BOW     MOCLDY    75  64  68 SE6       29.86R
SPRINGVIEW       N/A     70  64  81 CALM        N/A
SARGENT          N/A     73  66  79 CALM        N/A
CHAMBERS         N/A     74  67  78 E3          N/A
EWING            N/A     73  64  73 CALM        N/A
$$

...OBSERVATIONS IN SOUTHWEST NEBRASKA AND FAR NORTHEAST COLORADO...

CITY           SKY/WX    TMP DP  RH WIND       PRES   REMARKS
WRAY           CLOUDY    82  50  33 SE13G18   29.85F
HOLYOKE        FAIR      73  57  56 E3        29.87F
IMPERIAL       MOCLDY    77  55  46 SE12      29.85F
OGALLALA       MOCLDY    74  58  57 E8        29.86S
NORTH PLATTE   MOCLDY    69  63  81 E8        29.85S
MCCOOK         MOCLDY    84  57  39 S18G25    29.85R
LEXINGTON      MOCLDY    80  61  53 S14       29.86S
PAXTON           N/A     69  61  77 CALM        N/A
BRADY            N/A     71  64  78 CALM        N/A
CALLAWAY         N/A     66  63  90 SE8         N/A
$$

...OBSERVATIONS IN CENTRAL LINCOLN COUNTY AREA...

CITY           SKY/WX    TMP DP  RH WIND       PRES   REMARKS
N.P. AIRPORT   MOCLDY    69  63  81 E8        29.85S
N.P. DOWNTOWN    N/A     76  65  67 CALM        N/A
N.P. SOUTHEAST   N/A     73  64  73 CALM        N/A
N.P. HILLCREST   N/A     76  61  59 SE9         N/A
$$

...SOME OBSERVATIONS FROM AROUND THE REGION...

CITY           SKY/WX    TMP DP  RH WIND       PRES   REMARKS
DENVER         CLOUDY    70  49  47 S8        29.97S
LARAMIE        CLOUDY    56  47  71 SW7       30.10S
CHEYENNE       CLOUDY    64  51  62 W10       30.02S
SCOTTSBLUFF    CLOUDY    71  55  56 MISG      29.88R
RAPID CITY     PTCLDY    69  58  67 S3        29.81S
PIERRE         MOCLDY    73  66  78 NE7       29.75F
WINNER         FAIR      77  62  59 S8        29.79R
SIOUX FALLS    CLEAR     77  69  76 S14G23    29.86S
OMAHA          MOCLDY    80  68  66 S15       29.92R
GRAND ISLAND   CLEAR     77  66  68 S14       29.88R
KANSAS CITY    CLEAR     73  68  84 S8        29.98S
WICHITA        CLEAR     78  69  73 S9        29.95R
HAYS           CLEAR     81  59  47 S15       29.90S
LIBERAL        PTCLDY    81  55  41 S14       29.96S
GOODLAND       CLOUDY    77  54  44 S20       29.90R
$$



USA.gov is the U.S. government's official web portal to all federal, state and local government web resources and services.